Current Version              Previous Version:    01  02  03  04  05  06  07  08  09  10  11  12  13  14  15  16  17  18  19  20  21  22  23  24  25  26  27  28  29  30  
   31  32  33  34  35  36  37  38  39  40  41  42  43  44  45  46  47  48  49  50  51  52  53  54  55  56  57  58  59  60  

[Printable]
439
ASUS44 KFWD 310815
RWRTX
NORTH TEXAS HOURLY WEATHER ROUNDUP
NATIONAL WEATHER SERVICE FORT WORTH TX
300 AM CDT FRI OCT 31 2014

NOTE: "FAIR" INDICATES FEW OR NO CLOUDS BELOW 12,000 FEET WITH NO
SIGNIFICANT WEATHER AND/OR OBSTRUCTIONS TO VISIBILITY.

TXZ118-119-310900-
DALLAS/FORT WORTH METROPLEX

CITY           SKY/WX    TMP DP  RH WIND       PRES   REMARKS
DFW AIRPORT    CLEAR     58  45  62 NW12      30.18S
DALLAS LOVE    CLEAR     57  48  72 N8        30.18S
FTW MEACHAM    CLEAR     63  40  42 N8        30.19S
DAL-EXECUTIVE  CLEAR     59  46  62 N8        30.18R
FTW-ALLIANCE   CLEAR     56  40  55 N9        30.20R
FTW-NAS-JRB    CLEAR     61  47  59 NW10      30.24S
FTW-SPINKS     CLEAR     56  44  66 N3        30.21S
ARLINGTON      CLEAR     61  43  51 NW10      30.18S
GRAND PRAIRIE  CLEAR     62  46  56 NW3       30.20S
ADDISON        CLEAR     57  48  72 N6        30.20S
MESQUITE       CLEAR     56  46  69 NW6       30.18R
LANCASTER      CLEAR     56  46  66 NW7       30.19R
$$

TXZ091>094-102>105-117-120-121-131>134-310900-
NORTH CENTRAL TEXAS

CITY           SKY/WX    TMP DP  RH WIND       PRES   REMARKS
SHRMAN/DENISON CLEAR     51  43  73 NW5       30.21R
GAINESVILLE    CLEAR     55  39  56 NW10      30.23S
BOWIE          CLEAR     52  41  65 NW6       30.24R
BRIDGEPORT     CLEAR     55  42  62 N3        30.25S
DECATUR        CLEAR     56  38  49 N6        30.22S
DENTON         CLEAR     53  41  63 NW8       30.20S
MCKINNEY       CLEAR     54  44  69 N7        30.18R
GREENVILLE     CLEAR     52  43  71 N6        30.16S
ROCKWALL       CLEAR     55  46  71 N5        30.16S
TERRELL        CLEAR     62  42  47 N9        30.16S
WAXAHACHIE     CLEAR     58  49  70 N8        30.19S
CLEBURNE       CLEAR     57  52  82 NW7       30.21S
GRANBURY       CLEAR     56  52  85 NW3       30.23R
$$

TXZ083>090-098>101-113>116-127>130-139>142-154-155-310900-
WESTERN NORTH TEXAS

CITY           SKY/WX    TMP DP  RH WIND       PRES   REMARKS
WICHITA FALLS  CLEAR     53  36  52 NW9       30.26R
WF-KICKAPOO    CLEAR     59  34  39 N9        30.28R
VERNON         CLEAR     55  32  41 N8        30.31R
ABILENE        CLEAR     57  38  48 N3        30.27R
ABILENE-DYESS  CLEAR     55  40  57 N6        30.27R
BRECKENRIDGE   CLEAR     56  39  51 N3        30.25S
GRAHAM         CLEAR     56  40  56 N3        30.24R
MINERAL WELLS  CLEAR     54  44  69 N7        30.22R
STEPHENVILLE   CLEAR     59  49  70 N7        30.24S
COMANCHE       CLEAR     60  60 100 N8        30.23R
BROWNWOOD      CLOUDY    63  55  77 N3        30.23S
COLEMAN        CLEAR     60  48  63 NE6       30.25R
BRADY          MOCLDY    64  57  77 N13       30.21S
$$

TXZ143>147-156>162-174-175-310900-
CENTRAL TEXAS

CITY           SKY/WX    TMP DP  RH WIND       PRES   REMARKS
WACO           CLEAR     59  57  93 N5        30.17R
WACO-MCGREGOR  CLEAR     61  52  72 N3        30.18S
HILLSBORO      CLEAR     58  50  75 N8        30.18S
CORSICANA      CLEAR     60  49  66 N7        30.17R
MEXIA          CLEAR     61  52  71 N9        30.15S
HEARNE         PTCLDY    59  55  87 NW3       30.15S
CAMERON        PTCLDY    63  57  81 NW5       30.15S
TEMPLE         CLEAR     61  52  72 N7        30.16S
KILLEEN        CLOUDY    64  58  81 N5        30.18S
KILLEEN-SKYLRK MOCLDY    64  55  72 NW5       30.16S
GATESVILLE     CLEAR     63  55  77 N5        30.21S
HAMILTON       CLEAR     59  56  91 N9        30.22S
LAMPASAS       CLOUDY    63  61  94 N5        30.18S
$$

TXZ095>097-106>112-122>126-135>138-148>153-164>167-310900-
EAST TEXAS

CITY           SKY/WX    TMP DP  RH WIND       PRES   REMARKS
PARIS          CLEAR     54  37  54 CALM      30.16R
SULPHUR SPRNGS CLEAR     57  46  66 NW8       30.17S
MOUNT PLEASANT CLEAR     55  47  76 NW3       30.14S
MINEOLA        CLEAR     54  48  82 CALM      30.15S
TYLER          CLEAR     58  49  72 N6        30.13S
LONGVIEW       CLEAR     52  48  86 W3        30.11S
MARSHALL       CLEAR     58  51  77 N8        30.11F
ATHENS         CLEAR     57  48  72 CALM      30.14S
PALESTINE      CLEAR     57  53  85 CALM      30.15S
JACKSONVILLE   CLEAR     63  50  64 NW3       30.14S
HENDERSON      CLEAR     57  50  77 N3        30.13S
NACOGDOCHES    CLEAR     48  46  93 CALM      30.11F
LUFKIN         CLEAR     54  49  83 CALM      30.11S
$$

SUPPLEMENTAL OBSERVATIONS (CENTRAL)

CITY           SKY/WX    TMP DP  RH WIND       PRES   REMARKS
LAKE TEXOMA      N/A     63  43  48 NW16        N/A
CADDO GRASSLND   N/A     50  41  71 N1          N/A
PAT MAYSE LAKE   N/A     54  41  62 NW3         N/A
ATHENS           N/A     59  46  63 N3          N/A
PALESTINE        N/A     61  50  67 N5          N/A
LAKE LIMESTONE   N/A     61  52  72 N5          N/A
MCGREGOR         N/A     63  55  77 N6          N/A
TEMPLE           N/A     64  54  68 NW1         N/A
$$

SUPPLEMENTAL OBSERVATIONS (WEST)

CITY           SKY/WX    TMP DP  RH WIND       PRES   REMARKS
MILLERS CREEK    N/A     48  30  49 W1          N/A
POSSUM KINGDOM   N/A     57  36  44 VRB6        N/A
LBJ GRASSLAND    N/A     54  39  58 N6          N/A
GRANBURY         N/A     55  50  82 NW3         N/A
COMANCHE         N/A     59  57  94 N7          N/A
HAMBY            N/A     55  36  47 NE2         N/A
$$

SUPPLEMENTAL OBSERVATIONS (EAST)

CITY           SKY/WX    TMP DP  RH WIND       PRES   REMARKS
CLARKSVILLE      N/A     52  45  76 W3          N/A
TEXARKANA        N/A     43  41  93 CALM        N/A
GILMER           N/A     52  48  87 N1          N/A
HENDERSON        N/A     57  50  77 N5          N/A
LUFKIN           N/A     52  48  87 MISG        N/A
N SABINE NF      N/A     46  43  87 MISG        N/A
S SABINE NF      N/A     48  45  87 CALM        N/A
$$

SUPPLEMENTAL OBSERVATIONS ARE A COLLECTION OF AUTOMATED INSTRUMENTS
THAT ARE MAINTAINED BY A VARIETY OF FEDERAL AND STATE AGENCIES.
CERTAIN ELEMENTS...SUCH AS HUMIDITY VALUES AND SUSTAINED WIND
SPEEDS...MAY BE APPROXIMATED.